Epoch = 2010 Jan. 4.0 TT T = 2009 Dec. 15.43207 TT Peri. = 180.75749 e = 0.5026812 Node = 150.11807 2000.0 q = 1.5486245 AU Incl. = 8.13271 a = 3.1139471 AU n = 0.17936480 P = 5.495 years
m1 = 14.0 + 5 logΔ + 15.0 log r